This is the latest recevied weather packets stored in our database for station/object N4RCT. If no packets are shown the sender has not sent any weather packets the latest 1 day(s).
| Time | Temp. | Humidity | Pressure | Rain* | Wind** | Luminosity | Snow |
|---|---|---|---|---|---|---|---|
| 1777986259 | 15.56° C | 80% | 1015.1 hPa | 0 mm | 0 m/s | 259 W/m² | - |
| 1777985956 | 15° C | 82% | 1015 hPa | 0 mm | 0 m/s | 264 W/m² | - |
| 1777985653 | 14.44° C | 80% | 1015 hPa | 0 mm | 0 m/s | 253 W/m² | - |
| 1777985349 | 13.89° C | 86% | 1015 hPa | 0 mm | 0 m/s | 229 W/m² | - |
| 1777985047 | 13.33° C | 87% | 1014.7 hPa | 0 mm | 0 m/s | 154 W/m² | - |
| 1777984743 | 13.33° C | 86% | 1014.5 hPa | 0 mm | 0 m/s | 183 W/m² | - |
| 1777984439 | 13.33° C | 85% | 1014.5 hPa | 0 mm | 0 m/s | 166 W/m² | - |
| 1777984135 | 12.78° C | 90% | 1014.8 hPa | 0 mm | 0 m/s | 138 W/m² | - |
| 1777983833 | 11.67° C | 92% | 1014.4 hPa | 0 mm | 0 m/s | 126 W/m² | - |
| 1777983529 | 10.56° C | 94% | 1014.4 hPa | 0 mm | 0 m/s | 66 W/m² | - |
| 1777983226 | 10.56° C | 94% | 1014.3 hPa | 0 mm | 0 m/s | 44 W/m² | - |
| 1777982922 | 10° C | 94% | 1014.2 hPa | 0 mm | 0 m/s | 27 W/m² | - |
| 1777982618 | 10.56° C | 94% | 1014.1 hPa | 0 mm | 0 m/s | 33 W/m² | - |
| 1777982317 | 10° C | 95% | 1014.1 hPa | 0 mm | 0 m/s | 39 W/m² | - |
| 1777982014 | 10° C | 95% | 1014.1 hPa | 0 mm | 0 m/s | 49 W/m² | - |
| 1777981712 | 9.44° C | 96% | 1014.2 hPa | 0 mm | 0 m/s | 50 W/m² | - |
| 1777981409 | 9.44° C | 97% | 1014.2 hPa | 0 mm | 0 m/s | 43 W/m² | - |
| 1777981105 | 8.89° C | 97% | 1014.2 hPa | 0 mm | 0 m/s | 32 W/m² | - |
| 1777980801 | 8.89° C | 97% | 1014.1 hPa | 0 mm | 0 m/s | 29 W/m² | - |
| 1777980497 | 8.89° C | 97% | 1013.9 hPa | 0 mm | 0 m/s | 27 W/m² | - |
| 1777980195 | 8.33° C | 97% | 1013.7 hPa | 0 mm | 0 m/s | 20 W/m² | - |
| 1777979890 | 8.33° C | 97% | 1013.7 hPa | 0 mm | 0 m/s | 19 W/m² | - |
| 1777979586 | 8.33° C | 97% | 1013.5 hPa | 0 mm | 0 m/s | 18 W/m² | - |
| 1777979282 | 8.33° C | 97% | 1013.5 hPa | 0 mm | 0 m/s | 15 W/m² | - |
| 1777978980 | 7.78° C | 97% | 1013.5 hPa | 0 mm | 0 m/s | 10 W/m² | - |
* Rain latest hour (hover to see other rain measurements)
** Current wind speed in m/s (hover to see current wind gust speed)